AKARI (ASTRO-F) (28939 NORAD) Tracking and Keplerian Element Data

This shows tracking and keplerian element data for the satellite.

Feedback or suggestion? Click here.




ElementValue
Catalog28939
NameAKARI (ASTRO-F)
Epoch Orbit67421
Epoch Day202.7998826
Epoch Year2018
RAAN91.7734
Inclination98.2039
Eccentricity0.009996
Argument of Perigee236.9202
Mean Anonmoly122.2409
Mean Motion15.30956027
Decay Rate1.392E-05
L11 28939U 06005A 18202.79988260 .00001392 00000-0 43077-4 0 9994
L22 28939 98.2039 91.7734 0099960 236.9202 122.2409 15.30956027674210

Live tracking and technical data element details for AKARI (ASTRO-F) (NORAD 28939). AKARI (ASTRO-F) can be tracked NOW for your location showing map with azimuth and elevation plus other details from your city location.

Track the satellite on the map from your city or location and see movement details for azimuth, elevation, latitude, longitude, range, height, and movement on the map or in text.







IsCatalogInMostPopularTable: catalog: 28939, numindb: 22
Update: records affected: 1



GetName: 28939 AKARI (ASTRO-F)

Hit Count: updated at: Mon, 23 Jul 2018 07:56:06 GMT